Location: Ocean City
(38.3360°N, 75.0850°W)
Time: 03:05:44
(UTC-05:00)

deb Explorer IX - Pass Details

Date: 22 November 2019
Orbit: 546 x 1104 km, 38.8° (Epoch: 11 December)

Event Time Altitude Azimuth Distance (km) Brightness Sun altitude
Exits shadow 04:50:14 39° 217° (SW) 1,081 ? -23.1°
Maximum altitude 04:50:31 40° 208° (SSW) 1,068 ? -23.0°
Drops below altitude 10° 04:54:59 10° 140° (SE) 2,059 ? -22.2°
Sets 04:57:16 0° 132° (SE) 2,895 ? -21.7°
